| time (UTC) | temp F | wind direction | speed MPH | gust MPH | rain 1hr in | rain 24hr in | rain mn in | humidity % | barometer mb |
| 20260507050454 | 52 | 359 | 0.0 | 3.0 | 5.16 | 0.00 | 0.00 | ||
| 20260507045155 | 51 | 354 | 1.0 | 7.0 | 5.16 | 0.00 | 0.00 | ||
| 20260507043854 | 51 | 20 | 2.0 | 4.0 | 5.16 | 0.00 | 0.00 | ||
| 20260507042554 | 52 | 60 | 4.0 | 5.0 | 5.16 | 0.00 | 0.00 | ||
| 20260507041254 | 51 | 73 | 5.0 | 6.0 | 5.16 | 0.00 | 0.00 | ||
| 20260507035954 | 51 | 83 | 8.0 | 10.0 | 5.16 | 0.00 | 0.00 | ||
| 20260507034654 | 50 | 65 | 9.0 | 10.0 | 5.16 | 0.00 | 0.00 | ||
| 20260507033354 | 53 | 63 | 8.0 | 10.0 | 5.16 | 0.00 | 0.00 | ||
| 20260507032055 | 55 | 48 | 8.0 | 9.0 | 5.16 | 0.00 | 0.00 | ||
| 20260507025454 | 57 | 37 | 8.0 | 10.0 | 5.16 | 0.00 | 0.00 | ||
| 20260507024154 | 59 | 18 | 10.0 | 13.0 | 5.16 | 0.00 | 0.00 | ||
| 20260507022854 | 60 | 31 | 12.0 | 16.0 | 5.16 | 0.00 | 0.00 | ||
| 20260507021554 | 62 | 21 | 15.0 | 18.0 | 5.16 | 0.00 | 0.00 | ||
| 20260507020254 | 62 | 27 | 12.0 | 17.0 | 5.16 | 0.00 | 0.00 | ||
| 20260507014954 | 63 | 357 | 15.0 | 23.0 | 5.16 | 0.00 | 0.00 | ||
| 20260507013654 | 64 | 11 | 6.0 | 9.0 | 5.16 | 0.00 | 0.00 | ||
| 20260507012354 | 65 | 8 | 7.0 | 12.0 | 5.16 | 0.00 | 0.00 | ||
| 20260507011054 | 65 | 342 | 5.0 | 13.0 | 5.16 | 0.00 | 0.00 | ||
| 20260507005754 | 66 | 287 | 6.0 | 13.0 | 5.16 | 0.00 | 0.00 | ||
| 20260507004454 | 65 | 288 | 6.0 | 15.0 | 5.16 | 0.00 | 0.00 | ||
| 20260507003154 | 66 | 298 | 4.0 | 13.0 | 5.16 | 0.00 | 0.00 | ||
| 20260507001854 | 67 | 340 | 5.0 | 11.0 | 5.16 | 0.00 | 0.00 | ||
| 20260507000554 | 68 | 352 | 8.0 | 18.0 | 5.16 | 0.00 | 0.00 | ||
| 20260506235254 | 71 | 11 | 8.0 | 10.0 | 5.16 | 0.00 | 0.00 | ||
| 20260506233954 | 69 | 11 | 7.0 | 10.0 | 5.16 | 0.00 | 0.00 | ||
| 20260506232654 | 69 | 350 | 7.0 | 15.0 | 5.16 | 0.00 | 0.00 | ||
| 20260506230054 | 69 | 346 | 7.0 | 15.0 | 5.16 | 0.00 | 0.00 | ||
| 20260506224754 | 69 | 343 | 4.0 | 9.0 | 5.16 | 0.00 | 0.00 | ||
| 20260506223454 | 69 | 345 | 5.0 | 12.0 | 5.16 | 0.00 | 0.00 | ||
| 20260506222154 | 71 | 353 | 3.0 | 9.0 | 5.16 | 0.00 | 0.00 | ||
| 20260506220854 | 70 | 3 | 2.0 | 9.0 | 5.16 | 0.00 | 0.00 | ||
| 20260506215554 | 70 | 3 | 5.0 | 9.0 | 5.16 | 0.00 | 0.00 | ||
| 20260506214254 | 70 | 357 | 4.0 | 10.0 | 5.16 | 0.00 | 0.00 | ||
| 20260506212954 | 70 | 353 | 8.0 | 13.0 | 5.16 | 0.00 | 0.00 | ||
| 20260506211654 | 70 | 359 | 6.0 | 13.0 | 5.16 | 0.00 | 0.00 | ||
| 20260506210354 | 69 | 345 | 7.0 | 12.0 | 5.16 | 0.00 | 0.00 | ||
| 20260506205054 | 71 | 356 | 1.0 | 7.0 | 5.16 | 0.00 | 0.00 | ||
| 20260506203754 | 72 | 283 | 5.0 | 11.0 | 5.16 | 0.00 | 0.00 | ||
| 20260506202454 | 73 | 8 | 6.0 | 16.0 | 5.16 | 0.00 | 0.00 | ||
| 20260506201154 | 69 | 141 | 2.0 | 8.0 | 5.16 | 0.00 | 0.00 | ||
| 20260506195854 | 67 | 149 | 4.0 | 7.0 | 5.16 | 0.00 | 0.00 | ||
| 20260506194554 | 70 | 7 | 6.0 | 13.0 | 5.16 | 0.00 | 0.00 | ||
| 20260506193254 | 69 | 72 | 4.0 | 14.0 | 5.16 | 0.00 | 0.00 | ||
| 20260506191954 | 67 | 8 | 2.0 | 7.0 | 5.16 | 0.00 | 0.00 | ||
| 20260506190654 | 66 | 110 | 6.0 | 11.0 | 5.16 | 0.00 | 0.00 | ||
| 20260506185354 | 65 | 114 | 8.0 | 13.0 | 5.16 | 0.00 | 0.00 | ||
| 20260506184054 | 64 | 113 | 4.0 | 9.0 | 5.16 | 0.00 | 0.00 | ||
| 20260506182754 | 64 | 111 | 7.0 | 10.0 | 5.16 | 0.00 | 0.00 | ||
| 20260506181455 | 63 | 91 | 6.0 | 11.0 | 5.16 | 0.00 | 0.00 | ||
| 20260506180154 | 62 | 114 | 8.0 | 11.0 | 5.16 | 0.00 | 0.00 | ||
| 20260506174856 | 62 | 120 | 8.0 | 13.0 | 5.16 | 0.00 | 0.00 | ||
| 20260506173555 | 61 | 167 | 8.0 | 14.0 | 5.16 | 0.00 | 0.00 | ||
| 20260506170954 | 58 | 160 | 9.0 | 14.0 | 5.16 | 0.00 | 0.00 | ||
| 20260506165654 | 57 | 153 | 11.0 | 15.0 | 5.16 | 0.00 | 0.00 | ||
| 20260506164354 | 56 | 145 | 9.0 | 13.0 | 5.16 | 0.00 | 0.00 | ||
| 20260506163054 | 55 | 149 | 11.0 | 14.0 | 5.16 | 0.00 | 0.00 | ||
| 20260506161754 | 54 | 156 | 9.0 | 13.0 | 5.16 | 0.00 | 0.00 | ||
| 20260506160454 | 54 | 155 | 11.0 | 14.0 | 5.16 | 0.00 | 0.00 | ||
| 20260506153854 | 50 | 156 | 9.0 | 12.0 | 5.16 | 0.00 | 0.00 | ||
| 20260506152553 | 48 | 158 | 9.0 | 11.0 | 5.16 | 0.00 | 0.00 | ||
| 20260506151253 | 47 | 188 | 8.0 | 10.0 | 5.16 | 0.00 | 0.00 | ||
| 20260506145953 | 45 | 187 | 7.0 | 11.0 | 5.16 | 0.00 | 0.00 | ||
| 20260506144654 | 43 | 180 | 8.0 | 11.0 | 5.16 | 0.00 | 0.00 | ||
| 20260506143353 | 42 | 201 | 7.0 | 10.0 | 5.16 | 0.00 | 0.00 | ||
| 20260506142053 | 41 | 190 | 6.0 | 9.0 | 5.16 | 0.00 | 0.00 | ||
| 20260506140753 | 39 | 194 | 8.0 | 10.0 | 5.16 | 0.00 | 0.00 | ||
| 20260506135453 | 38 | 198 | 7.0 | 9.0 | 5.16 | 0.00 | 0.00 | ||
| 20260506134153 | 36 | 184 | 7.0 | 9.0 | 5.16 | 0.00 | 0.00 | ||
| 20260506132853 | 35 | 184 | 7.0 | 10.0 | 5.16 | 0.00 | 0.00 | ||
| 20260506131553 | 34 | 179 | 6.0 | 8.0 | 5.16 | 0.00 | 0.00 | ||
| 20260506130253 | 33 | 174 | 8.0 | 9.0 | 5.16 | 0.00 | 0.00 | ||
| 20260506124953 | 31 | 163 | 7.0 | 8.0 | 5.16 | 0.00 | 0.00 | ||
| 20260506123653 | 30 | 158 | 9.0 | 10.0 | 5.16 | 0.00 | 0.00 | ||
| 20260506122353 | 29 | 160 | 8.0 | 9.0 | 5.16 | 0.00 | 0.00 | ||
| 20260506121053 | 28 | 162 | 7.0 | 8.0 | 5.16 | 0.00 | 0.00 | ||
| 20260506115754 | 28 | 159 | 6.0 | 7.0 | 5.16 | 0.00 | 0.00 | ||
| 20260506114453 | 28 | 152 | 9.0 | 10.0 | 5.16 | 0.00 | 0.00 | ||
| 20260506113153 | 28 | 159 | 8.0 | 9.0 | 5.16 | 0.00 | 0.00 | ||
| 20260506111853 | 29 | 162 | 8.0 | 9.0 | 5.16 | 0.00 | 0.00 | ||
| 20260506110553 | 29 | 162 | 8.0 | 9.0 | 5.16 | 0.00 | 0.00 | ||
| 20260506105253 | 30 | 169 | 6.0 | 8.0 | 5.16 | 0.00 | 0.00 | ||
| 20260506103953 | 29 | 159 | 8.0 | 10.0 | 5.16 | 0.00 | 0.00 | ||
| 20260506102653 | 29 | 169 | 8.0 | 10.0 | 5.16 | 0.00 | 0.00 | ||
| 20260506101353 | 29 | 153 | 8.0 | 10.0 | 5.16 | 0.00 | 0.00 | ||
| 20260506100053 | 29 | 149 | 7.0 | 10.0 | 5.16 | 0.00 | 0.00 | ||
| 20260506094753 | 30 | 136 | 8.0 | 10.0 | 5.16 | 0.00 | 0.00 | ||
| 20260506093453 | 30 | 145 | 8.0 | 10.0 | 5.16 | 0.00 | 0.00 | ||
| 20260506092153 | 32 | 149 | 11.0 | 13.0 | 5.16 | 0.00 | 0.00 | ||
| 20260506090853 | 32 | 141 | 8.0 | 14.0 | 5.16 | 0.00 | 0.00 | ||
| 20260506085553 | 32 | 162 | 12.0 | 14.0 | 5.16 | 0.00 | 0.00 | ||
| 20260506084253 | 32 | 146 | 7.0 | 12.0 | 5.16 | 0.00 | 0.00 | ||
| 20260506082953 | 33 | 142 | 10.0 | 12.0 | 5.16 | 0.00 | 0.00 | ||
| 20260506081653 | 33 | 152 | 12.0 | 15.0 | 5.16 | 0.00 | 0.00 | ||
| 20260506080353 | 33 | 148 | 10.0 | 13.0 | 5.16 | 0.00 | 0.00 | ||
| 20260506072453 | 31 | 146 | 6.0 | 9.0 | 5.16 | 0.00 | 0.00 | ||
| 20260506071153 | 33 | 125 | 6.0 | 9.0 | 5.16 | 0.00 | 0.00 | ||
| 20260506061953 | 32 | 120 | 8.0 | 11.0 | 5.16 | 0.00 | 0.00 | ||
| 20260506060653 | 33 | 120 | 9.0 | 12.0 | 5.16 | 0.00 | 0.00 |